Location: Tierz
(42.1336°N, 0.3549°W)
Time: 12:03:04
(UTC+00:00)

Cosmos 1980 Rocket - Pass Details

Date: 29 October 2020
Orbit: 831 x 848 km, 71.0° (Epoch: 29 November)

Event Time Altitude Azimuth Distance (km) Brightness Sun altitude
Rises 17:29:18 0° 153° (SSE) 3,377 5.2 -6.3°
Reaches altitude 10° 17:32:49 10° 130° (SE) 2,445 4.3 -7.0°
Maximum altitude 17:35:48 15° 98° (E) 2,122 3.7 -7.5°
Drops below altitude 10° 17:38:48 10° 65° (ENE) 2,448 4.0 -8.0°
Enters shadow 17:39:29 - 59° (ENE) 2,599 4.1 -8.2°
